Regional Weather Roundup
Issued by NWS Grand Forks, ND

Home | Current Version | Previous Version | Graphics & Text | Print | Product List | Glossary On
Versions: 1 2 3 4 5 6 7 8 9 10 11 12 13 14 15 16 17 18 19 20 21 22 23 24 25 26 27 28 29 30 31 32 33 34 35 36 37 38 39 40 41 42 43 44 45 46 47 48 49 50
000
ASUS43 KFGF 251631
RWRFGF
PRAIRIE TO PINES  WEATHER ROUNDUP
NATIONAL WEATHER SERVICE EASTERN NORTH DAKOTA/GRAND FORKS ND
1100 AM CDT WED APR 25 2018

 **SATELLITE DATA USED TO AUGMENT SKY COVER AT AUTOMATED STATIONS**
 *****  WEATHER ACROSS EASTERN NORTH DAKOTA  *****

CITY           SKY/WX    TMP DP  RH WIND       PRES   REMARKS
GRAND FORKS    FAIR      56  40  55 SW16      30.08F
GRAND FRKS AFB FAIR      59  36  42 SW13      30.07F
GRAND FRKS NWS   N/A     55  40  57 SW13      30.05F
DEVILS LAKE    FAIR      51  31  46 SW14      30.06F
FARGO          FAIR      54  32  43 S16       30.16F
WAHPETON ARPT  FAIR      50  30  46 S9        30.21F
$$

 ***** WEATHER ACROSS CENTRAL AND WESTERN NORTH DAKOTA  *****

CITY           SKY/WX    TMP DP  RH WIND       PRES   REMARKS
BISMARCK       FAIR      57  27  31 SW21G29   30.11F
MINOT          FAIR      57  30  35 S16G26    29.96F
JAMESTOWN      FAIR      57  27  31 W23G29    30.11F
MINOT AFB      FAIR      56  31  38 SW23      29.94F
GARRISON         N/A     54  31  41 SW17G29   30.02F
WILLISTON      FAIR      51  31  46 SW17G29   29.96F
DICKINSON      FAIR      55  28  35 SW22      30.03F
HETTINGER      FAIR      53  29  39 S22       30.11F
$$

 *****  OTHER AIRPORT OBSERVATIONS IN OUR AREA  *****

CITY           SKY/WX    TMP DP  RH WIND       PRES   REMARKS
WALHALLA       NOT AVBL
GRAFTON AIRPOR FAIR      59  34  38 SW20      30.05F
VALLEY CITY AR FAIR      57  34  41 SW18      30.13F
CANDO          FAIR      59  30  33 SW24      30.02F
CAVALIER APRT    N/A     59  36  41 SW16G24   30.00F
GWINNER          N/A     54  36  50 SW16      30.17F
SHEYENNE NWR     N/A     53  33  47 SW14      29.95
ROLLA          FAIR      54  32  43 SW26G32   29.96F
 ***** THE ABOVE OBSERVATIONS ARE NON NWS ARE NOT QUALITY
       CONTROLLED AND MAY MIS-REPORT RAIN FOR SNOW...
$$

  *****  WEATHER ACROSS NORTHERN MINNESOTA  *****

CITY           SKY/WX    TMP DP  RH WIND       PRES   REMARKS
FLAG ISLAND    FAIR      37  30  75 S16       30.02F
WARROAD        FAIR      55  36  47 SW15G23   30.04F
ROSEAU         FAIR      55  36  47 SW21      30.04F
HALLOCK        FAIR      61  34  36 SW16G23   30.02F
THF RVR FALLS  FAIR      51  33  50 SW18      30.11F
BAUDETTE       FAIR      53  28  38 SW18G25   30.08F
WASKISH        PTSUNNY   50  28  43 W10       30.12F
CROOKSTON      FAIR      54  37  54 SW18      30.11F
STEPHEN NDAWN    N/A     54  39  58 S14         N/A
GREENBUSH NDAW   N/A     52  37  58 S15         N/A
$$
  *****  WEATHER ACROSS CENTRAL AND WEST MINNESOTA  *****

CITY           SKY/WX    TMP DP  RH WIND       PRES   REMARKS
FOSSTON        FAIR      48  30  49 SW20      30.14F
BEMIDJI        FAIR      51  25  36 SW7       30.14F
PARK RAPIDS    FAIR      49  25  39 SW8       30.18F
ELBOW LAKE     FAIR      46  30  52 SW9       30.24S
WADENA         FAIR      46  28  49 SW12      30.20F
DETROIT LAKES  FAIR      48  28  46 SW13      30.19F
MOORHEAD       FAIR      50  34  53 S14       30.18F
FERGUS FALLS   FAIR      48  28  46 SW9       30.20F
MORRIS MN      FAIR      46  32  57 SW9       30.23F
STAPLES        FAIR      48  21  34 SW7       30.20F
$$
  *****  WEATHER ELSEWHERE ACROSS MINNESOTA  *****

CITY           SKY/WX    TMP DP  RH WIND       PRES   REMARKS
DULUTH         FAIR      45  24  43 NW3       30.18F
INTRNTL FALLS  FAIR      50  23  34 SW12      30.12F
ELY            FAIR      45  19  36 SW8       30.16F
CLOQUET        FAIR      46  18  31 CALM      30.19S
WHEATON        FAIR      50  28  43 S12       30.24F
BRAINERD       FAIR      46  22  38 W6        30.22F
HIBBING        FAIR      44  22  41 CALM      30.18F
ALEXANDRIA     FAIR      48  25  40 W9        30.23F
SAINT CLOUD    FAIR      45  24  43 SW5       30.23F
MINNEAPOLIS    FAIR      47  27  45 CALM      30.24F
$$

  *****  WEATHER ACROSS SOUTH DAKOTA  *****

CITY           SKY/WX    TMP DP  RH WIND       PRES   REMARKS
SIOUX FALLS    FAIR      50  27  40 VRB5      30.26F
BROOKINGS      FAIR      44  28  53 NW5       30.25F
WATERTOWN      FAIR      47  29  49 W8        30.23F
HURON          FAIR      49  32  52 S7        30.25F
SISSETON         N/A     54  30  40 SW9       30.21F
ABERDEEN       FAIR      53  35  50 SW12      30.22F
MITCHELL       FAIR      49  31  49 CALM      30.27F
PIERRE         FAIR      50  32  50 SW10      30.23F
MOBRIDGE       FAIR      54  34  46 SW13      30.15F
RAPID CITY     FAIR      52  28  39 S12       30.15F
$$

  *****  SOME WEATHER IN NEARBY STATES *****

CITY           SKY/WX    TMP DP  RH WIND       PRES   REMARKS
GLASGOW MT     FAIR      51  33  50 W3        29.94F
GREAT FALLS MT FAIR      53  25  33 SW18      30.05S
CHEYENNE WY    FAIR      44  27  51 VRB3      30.28F
SCOTTSBLUFF NE FAIR      44  33  65 SW5       30.29F
OMAHA NE       CLOUDY    46  39  76 N10       30.25S
DES MOINES IA  PTSUNNY   56  32  40 N13       30.19S
DAVENPORT IA   FAIR      54  34  46 NE9       30.16F
CHICAGO IL     FAIR      51  29  42 NE21G26   30.11F
EAU CLAIRE WI  FAIR      46  28  49 SW6       30.21F
LA CROSSE WI   FAIR      50  35  56 W9        30.20F
$$

  *****  SOME NATIONAL WEATHER *****

CITY           SKY/WX    TMP DP  RH WIND       PRES   REMARKS
LA GUARDIA NY  CLOUDY    60  56  86 SE17G26   29.81F
RALEIGH NC     CLOUDY    64  61  90 SW7       29.73F
ATLANTA GA     PTSUNNY   63  52  67 NW10G20   29.95S
NEW ORLEANS LA FAIR      75  56  51 N5        30.05F
OKLAHOMA CITY  CLOUDY    46  44  93 N17       30.23R FOG
ALBUQUERQUE NM FAIR      55  34  45 E18       30.30S
SALT LAKE CITY FAIR      58  28  32 S12       30.25F
LOS ANGELES CA PTSUNNY   59  51  75 W5        30.09R
BOISE ID       FAIR      56  34  43 NE3       30.20R
SEATTLE WA     FAIR      59  42  53 N12       30.12R
$$

*** WEATHER ACROSS MANITOBA...SASKATCHEWAN AND ONTARIO ***
                ***ONTARIO***

CITY           SKY/WX    TMP DP  RH WIND       PRES   REMARKS
GERALDTON      MOSUNNY   37  21  52 N5        30.11F
THUNDER BAY    PTSUNNY   45  23  42 SW9       30.17F
SIOUX LOOKOUT  PTSUNNY   48  23  37 SW10      30.03F
TORONTO        LGT RAIN  48  48 100 NE3       29.83F
BIG TROUT LK   MOSUNNY   43  27  52 SW12G20   29.70F
PICKLE LAKE    PTSUNNY   45  21  39 SW18G30   29.93F
DRYDEN         SUNNY     48  21  34 SW20      30.02F
KENORA         PTSUNNY   46  27  46 S16G26    30.00F
$$
                *** MANITOBA***

CITY           SKY/WX    TMP DP  RH WIND       PRES   REMARKS
BRANDON        PTSUNNY   55  36  47 SW16G24   29.89F
DAUPHIN        SUNNY     61  32  33 SW18G24   29.76F
ISLAND LAKE    CLOUDY    50  28  43 W10G18    29.67F
PILOT MOUND      N/A     57  30  35 SW28        N/A
THE PAS        PTSUNNY   46  30  53 NW9       29.79R
THOMPSON       PTSUNNY   46  30  53 NW16G28   29.68R
WINNIPEG       PTSUNNY   59  34  38 SW18G24   29.94F
LYNN LAKE      PTSUNNY   39  30  70 NW14G29   29.76R
CHURCHILL      SNOWSHWR  28  28 100 N30       29.59R WCI  13
GILLAM         MOSUNNY   45  34  65 W14G20    29.57R
$$
                ***SASKATCHEWAN***

CITY           SKY/WX    TMP DP  RH WIND       PRES   REMARKS
ESTEVAN        CLOUDY    54  32  43 SW21G29   29.87F
KINDERSLEY     PTSUNNY   52  32  46 N25G33    29.98R
LLOYDMINSTER   MOSUNNY   52  30  43 N13       30.01R
PRINCE ALBERT  PTSUNNY   52  30  43 N15G21    29.92R
REGINA         CLOUDY    55  28  35 W17       29.82F
YORKTON        PTSUNNY   54  32  43 W12       29.79F
N. BATTLEFORD  SUNNY     54  30  40 NW8       29.97R
LA RONGE       MOSUNNY   52  32  46 NW13G23   29.90S
SASKATOON      PTSUNNY   54  30  40 N18G29    29.93R
SWIFT CURRENT  CLOUDY    50  27  40 N15G22    29.91R
$$
NOTE: THESE ARE AUTOMATED STATIONS WITH LIMITED QUALITY CONTROL
      "FAIR" INDICATES FEW OR NO CLOUDS BELOW 12,000 FEET WITH NO
      SIGNIFICANT WEATHER AND/OR OBSTRUCTIONS TO VISIBILITY.
      SKY/WX - SKY CONDITION AND SIGNIFICANT WEATHER.
      TMP - AIR TEMPERATURE.    DP   - DEWPOINT TEMPERATURE.
      RH  - RELATIVE HUMIDITY.  PRES - PRESSURE.
      HX  - HEAT INDEX.         WCI  - WIND CHILL INDEX.
$



USA.gov is the U.S. government's official web portal to all federal, state and local government web resources and services.